[[{"header":{"parameterUnit":"m.s-1","parameterCategory":1,"la1":30.2991,"la2":30.254,"lo1":-89.0895,"lo2":-89.0444,"dy":0.0017,"dx":0.0017,"nx":28,"ny":28,"refTime":"2024-11-24T09:00:00:Z","depth":0,"parameterNumber":2,"parameterNumberName":"U-component_of_WINDS"},"data":[0,0,0,0,0,0,0,0,0,0,0,0,0,0,0,0,0,0,0,0,0,0,0,0,0,0,0,0,0,0,0,0,0,0,0,0,0,0,0,0,0,0,0,0,0,0,0,0,0,0,0,0,0,0,0,0,0,0,-0.2512,-0.251,0,-0.2297,-0.2294,-0.2292,-0.2169,-0.2169,-0.2169,-0.2168,-0.1939,-0.1934,-0.1928,0,0,0,0,0,0,0,0,0,0,0,0,0,-0.2812,-0.2807,-0.2513,-0.251,-0.2507,-0.2297,-0.2294,-0.2291,-0.2169,-0.2169,-0.2168,-0.2168,-0.1941,-0.1935,-0.1928,0,0,0,0,0,0,0,0,0,0,0,0,0,-0.2647,-0.2805,-0.2513,-0.2421,-0.2411,-0.2298,-0.2294,-0.229,-0.2169,-0.2169,-0.2168,-0.2168,-0.1944,-0.1935,-0.1927,-0.1886,0,0,-0.19,-0.1897,0,0,0,0,0,0,0,0,-0.2657,-0.2636,-0.2437,-0.2427,-0.2416,-0.2259,-0.2315,-0.2154,-0.217,-0.2261,-0.2168,-0.2167,-0.2046,-0.2029,-0.1989,-0.1875,-0.1865,-0.19,-0.1894,-0.1891,-0.1888,0,0,0,0,0,0,0,-0.2668,-0.2645,-0.2427,-0.2435,-0.2421,-0.2388,-0.2364,-0.2284,-0.2159,-0.2253,-0.2244,-0.222,-0.204,-0.1998,-0.1983,-0.1862,-0.19,-0.1892,-0.1887,-0.1884,-0.17,-0.1701,0,0,0,0,0,0,-0.2695,-0.2655,-0.2434,-0.242,-0.2537,-0.2384,-0.2357,-0.231,-0.216,-0.2136,-0.2221,-0.2215,-0.2013,-0.1993,-0.1975,-0.1915,-0.1891,-0.1883,-0.1878,-0.17,-0.17,-0.1701,0,0,0,0,0,0,-0.2702,-0.2677,-0.2442,-0.2535,-0.2503,-0.2379,-0.2328,-0.2306,-0.2264,-0.2136,-0.2112,-0.2202,-0.2012,-0.1987,-0.1909,-0.1905,-0.1879,-0.1871,-0.17,-0.17,-0.1701,-0.1797,0,0,0,0,0,0,-0.2711,-0.268,-0.2665,-0.2536,-0.2499,-0.2383,-0.2327,-0.2302,-0.2251,-0.2241,-0.2111,-0.2089,-0.2009,-0.1922,-0.19,-0.1893,-0.1864,-0.1699,-0.17,-0.1701,-0.1793,-0.1801,-0.1807,0,0,0,0,0,-0.2723,-0.2699,-0.2665,-0.2639,-0.2477,-0.2383,-0.2361,-0.2272,-0.2251,-0.2233,-0.2151,-0.2093,-0.191,-0.1915,-0.1889,-0.188,-0.1699,-0.17,-0.17,-0.179,-0.1799,-0.1807,0,0,0,0,0,0,-0.2828,-0.2681,-0.2641,-0.2576,-0.2493,-0.2363,-0.2337,-0.2284,-0.2204,-0.2198,-0.2089,-0.206,-0.1992,-0.1928,-0.1937,-0.1831,-0.1798,-0.1794,-0.1875,-0.1883,-0.1889,-0.1905,-0.1857,0,0,0,0,0,-0.2845,-0.2783,-0.2656,-0.261,-0.2571,-0.2462,-0.2418,-0.2357,-0.2265,-0.2229,-0.214,-0.2052,-0.1974,-0.1925,-0.1846,-0.1784,-0.1753,-0.1765,-0.1772,-0.1778,-0.1774,-0.1735,-0.1738,-0.1703,-0.1703,-0.1703,0,0,-0.2876,-0.2788,-0.2755,-0.2629,-0.2558,-0.2494,-0.2433,-0.2368,-0.2318,-0.2218,-0.2139,-0.2072,-0.1965,-0.1895,-0.186,-0.1839,-0.1777,-0.1778,-0.1784,-0.1777,-0.1736,-0.1739,-0.1742,-0.1703,-0.1703,-0.1703,0,0,-0.2901,-0.2829,-0.2783,-0.2714,-0.2608,-0.2535,-0.2525,-0.2402,-0.2354,-0.2274,-0.2197,-0.2135,-0.2004,-0.1931,-0.1877,-0.1876,-0.1819,-0.1853,-0.1887,-0.185,-0.1853,-0.1854,-0.1852,-0.1853,-0.1851,-0.1851,-0.1851,0,-0.2953,-0.2856,-0.2765,-0.2705,-0.2651,-0.256,-0.2511,-0.2447,-0.232,-0.2283,-0.2264,-0.2097,-0.2019,-0.193,-0.193,-0.189,-0.1872,-0.1867,-0.186,-0.1861,-0.1861,-0.1858,-0.1857,-0.1856,-0.1855,-0.1855,-0.1854,0,-0.2924,-0.2858,-0.2833,-0.2715,-0.2658,-0.2604,-0.2503,-0.2456,-0.24,-0.2329,-0.2248,-0.2152,-0.2052,-0.2026,-0.197,-0.1929,-0.1919,-0.1882,-0.1846,-0.1871,-0.1865,-0.1863,-0.1863,-0.1861,-0.1859,-0.1858,0,0,-0.3007,-0.2842,-0.2834,-0.2779,-0.2656,-0.2602,-0.2542,-0.2447,-0.2408,-0.2324,-0.2269,-0.2161,-0.2126,-0.2064,-0.1999,-0.1967,-0.197,-0.1932,-0.1928,-0.1941,-0.1916,-0.1944,-0.1944,-0.1933,-0.1932,-0.1931,-0.1924,0,-0.3013,-0.2905,-0.2822,-0.2744,-0.268,-0.2593,-0.2541,-0.2459,-0.2391,-0.2325,-0.2249,-0.2174,-0.2134,-0.2096,-0.206,-0.1977,-0.1963,-0.1977,-0.1878,-0.1875,-0.1906,-0.1941,-0.197,-0.1968,-0.1921,-0.1921,-0.1921,0,-0.3004,-0.2926,-0.2843,-0.2726,-0.2696,-0.2651,-0.2557,-0.2496,-0.24,-0.2353,-0.2286,-0.2219,-0.215,-0.2123,-0.2024,-0.2036,-0.199,-0.1943,-0.1941,-0.1926,-0.1898,-0.1925,-0.1965,-0.1964,-0.1917,-0.1917,-0.1917,0,-0.3072,-0.2945,-0.2878,-0.2834,-0.2697,-0.2667,-0.2608,-0.2512,-0.246,-0.2377,-0.2341,-0.2251,-0.2201,-0.2131,-0.204,-0.2029,-0.195,-0.1916,-0.1907,-0.1909,-0.1892,-0.1894,-0.1923,-0.1867,-0.1867,-0.1867,-0.1867,0,-0.3085,-0.3037,-0.2907,-0.2866,-0.2808,-0.2713,-0.2658,-0.2591,-0.2506,-0.2449,-0.2368,-0.2315,-0.22,-0.2132,-0.206,-0.1989,-0.1967,-0.1925,-0.1906,-0.1931,-0.1936,-0.1898,-0.1895,-0.1867,-0.1867,-0.1867,-0.1867,0,-0.3149,-0.3061,-0.2982,-0.286,-0.2828,-0.2791,-0.2684,-0.264,-0.2569,-0.2497,-0.2474,-0.2361,-0.2277,-0.2181,-0.2065,-0.2016,-0.1949,-0.1923,-0.1983,-0.1972,-0.1967,-0.1968,-0.1971,-0.1965,-0.1916,-0.1917,-0.1917,0,-0.3163,-0.3124,-0.2998,-0.2956,-0.29,-0.2831,-0.2778,-0.2682,-0.263,-0.2518,-0.2487,-0.2398,-0.2321,-0.2191,-0.2096,-0.2007,-0.1976,-0.1983,-0.1962,-0.1988,-0.1974,-0.1976,-0.1971,-0.1989,-0.199,-0.1991,-0.1991,0,-0.3196,-0.3154,-0.3083,-0.2996,-0.2936,-0.2862,-0.2785,-0.2753,-0.2641,-0.2586,-0.2501,-0.2442,-0.2325,-0.2236,-0.2135,-0.2071,-0.2011,-0.1999,-0.1992,-0.2016,-0.2051,-0.203,-0.1997,-0.1999,-0.1998,-0.1998,-0.1997,-0.1997,-0.3233,-0.3194,-0.31,-0.3023,-0.2955,-0.2885,-0.2837,-0.2761,-0.269,-0.2588,-0.2536,-0.2451,-0.2354,-0.2213,-0.2151,-0.2081,-0.2061,-0.2051,-0.2048,-0.2047,-0.2053,-0.2065,-0.2063,-0.2062,-0.2062,-0.2062,-0.2061,0,-0.326,-0.3196,-0.3126,-0.3022,-0.2961,-0.2914,-0.2826,-0.2777,-0.2704,-0.2621,-0.2548,-0.245,-0.2363,-0.2264,-0.217,-0.2134,-0.2104,-0.2112,-0.2113,-0.2098,-0.2077,-0.2092,-0.2138,-0.2138,-0.2138,-0.2138,-0.2138,-0.2138,-0.3267,-0.3199,-0.3146,-0.3043,-0.2977,-0.2896,-0.285,-0.2784,-0.2717,-0.2611,-0.2541,-0.2477,-0.2386,-0.2286,-0.2204,-0.2176,-0.2145,-0.2161,-0.2125,-0.2107,-0.21,-0.2094,-0.2107,-0.2155,-0.2156,-0.2152,-0.2152,-0.2152]},{"header":{"parameterUnit":"m.s-1","parameterCategory":1,"la1":30.2991,"la2":30.254,"lo1":-89.0895,"lo2":-89.0444,"dy":0.0017,"dx":0.0017,"nx":28,"ny":28,"refTime":"2024-11-24T09:00:00:Z","depth":0,"parameterNumber":3,"parameterNumberName":"V-component_of_WINDS"},"data":[0,0,0,0,0,0,0,0,0,0,0,0,0,0,0,0,0,0,0,0,0,0,0,0,0,0,0,0,0,0,0,0,0,0,0,0,0,0,0,0,0,0,0,0,0,0,0,0,0,0,0,0,0,0,0,0,0,0,2.3701,2.37,0,2.3637,2.3636,2.3636,2.3608,2.3608,2.3608,2.3608,2.3536,2.3534,2.3532,0,0,0,0,0,0,0,0,0,0,0,0,0,2.3793,2.3792,2.3701,2.37,2.37,2.3637,2.3636,2.3635,2.3608,2.3608,2.3608,2.3608,2.3537,2.3534,2.3532,0,0,0,0,0,0,0,0,0,0,0,0,0,2.3743,2.3791,2.3701,2.3678,2.3676,2.3637,2.3636,2.3635,2.3608,2.3608,2.3608,2.3608,2.3537,2.3534,2.3531,2.3509,0,0,2.3522,2.3521,0,0,0,0,0,0,0,0,2.3746,2.374,2.3683,2.368,2.3677,2.3631,2.3642,2.3593,2.3608,2.3633,2.3608,2.3608,2.3567,2.3561,2.3549,2.3506,2.3503,2.3522,2.352,2.3519,2.3518,0,0,0,0,0,0,0,2.375,2.3743,2.3676,2.3682,2.3678,2.3669,2.3662,2.3633,2.36,2.3631,2.3629,2.3622,2.3565,2.3552,2.3547,2.3501,2.3522,2.3519,2.3517,2.3516,2.3436,2.3435,0,0,0,0,0,0,2.3758,2.3746,2.3678,2.3674,2.3713,2.3667,2.366,2.3645,2.36,2.3593,2.3622,2.3621,2.3557,2.3551,2.3544,2.3515,2.3519,2.3516,2.3514,2.3436,2.3436,2.3435,0,0,0,0,0,0,2.376,2.3752,2.368,2.3709,2.3699,2.3666,2.365,2.3644,2.363,2.3593,2.3587,2.3615,2.3557,2.3549,2.3518,2.3512,2.3515,2.3512,2.3436,2.3436,2.3436,2.3456,0,0,0,0,0,0,2.3763,2.3753,2.3746,2.3709,2.3698,2.3657,2.3649,2.3642,2.3626,2.3624,2.3585,2.3578,2.3556,2.3523,2.3515,2.3508,2.3509,2.3437,2.3436,2.3436,2.3456,2.3457,2.3457,0,0,0,0,0,2.3766,2.3753,2.3746,2.3737,2.3688,2.3657,2.365,2.3628,2.3626,2.3617,2.3593,2.3579,2.3514,2.352,2.3511,2.3503,2.3437,2.3436,2.3436,2.3456,2.3457,2.3457,0,0,0,0,0,0,2.3787,2.3748,2.3739,2.3714,2.3689,2.3653,2.3641,2.3629,2.3603,2.3602,2.3572,2.3564,2.3536,2.3516,2.3524,2.3478,2.3474,2.3472,2.3493,2.3493,2.3494,2.3499,2.3507,0,0,0,0,0,2.3789,2.3769,2.3735,2.3716,2.3704,2.3675,2.366,2.3645,2.3617,2.3606,2.358,2.3552,2.3525,2.3508,2.3481,2.3453,2.3443,2.3442,2.3443,2.3444,2.3442,2.3425,2.3424,2.3433,2.3433,2.3433,0,0,2.3792,2.3768,2.3757,2.3719,2.3699,2.3677,2.3666,2.3643,2.3626,2.3602,2.3573,2.3552,2.3519,2.349,2.3475,2.3472,2.3437,2.3443,2.3444,2.3441,2.3424,2.3423,2.3423,2.3433,2.3433,2.3433,0,0,2.3788,2.3768,2.375,2.373,2.3699,2.368,2.3676,2.3641,2.3627,2.3597,2.3579,2.3556,2.3511,2.3488,2.347,2.3457,2.3443,2.3448,2.3451,2.3435,2.3434,2.3434,2.3428,2.3427,2.3446,2.3447,2.3447,0,2.3795,2.3764,2.3742,2.3721,2.3704,2.3683,2.3664,2.3644,2.3605,2.3593,2.3591,2.3534,2.3509,2.3475,2.3471,2.3458,2.3451,2.3453,2.3437,2.3436,2.3434,2.3429,2.3427,2.3447,2.3447,2.3447,2.3447,0,2.3774,2.3753,2.3741,2.3707,2.3689,2.3669,2.3642,2.3626,2.3612,2.3592,2.3561,2.3532,2.3499,2.3489,2.3474,2.3452,2.3451,2.3443,2.3438,2.3435,2.3429,2.3427,2.3449,2.3448,2.3448,2.3448,0,0,2.3781,2.3736,2.3732,2.3716,2.3681,2.3662,2.364,2.361,2.3596,2.357,2.355,2.3512,2.3505,2.3484,2.3466,2.3452,2.3443,2.3446,2.3445,2.3446,2.3416,2.3422,2.342,2.3434,2.3433,2.3433,2.3419,0,2.3771,2.3734,2.3713,2.3683,2.3663,2.3642,2.3623,2.3598,2.3578,2.3556,2.3533,2.3507,2.35,2.3487,2.3473,2.3448,2.3437,2.3448,2.3413,2.3412,2.3423,2.3418,2.3424,2.3412,2.3416,2.3416,2.3416,0,2.3755,2.3732,2.3701,2.3668,2.3658,2.3642,2.3612,2.3592,2.3562,2.3549,2.3527,2.351,2.3483,2.3481,2.3443,2.3452,2.3436,2.3421,2.342,2.3416,2.3414,2.3413,2.3408,2.3406,2.3412,2.3412,2.3413,0,2.3764,2.3724,2.37,2.3687,2.3648,2.3637,2.362,2.3591,2.3574,2.3547,2.3535,2.3505,2.3488,2.3464,2.3438,2.3439,2.3403,2.3398,2.339,2.3391,2.3383,2.3384,2.3376,2.3373,2.3373,2.3373,2.3373,0,2.3755,2.3737,2.3704,2.3689,2.3667,2.3643,2.3621,2.3602,2.3576,2.3556,2.3535,2.3516,2.3483,2.3459,2.3438,2.341,2.3402,2.339,2.3384,2.3392,2.3393,2.3381,2.3381,2.3373,2.3373,2.3373,2.3373,0,2.3761,2.3738,2.3711,2.3677,2.3668,2.3653,2.3623,2.3607,2.3586,2.3561,2.3553,2.3521,2.3492,2.3464,2.3424,2.3409,2.3381,2.3374,2.3392,2.3389,2.3383,2.3384,2.3366,2.3362,2.3362,2.3362,2.3362,0,2.3757,2.3743,2.3708,2.3694,2.3678,2.3656,2.3639,2.3614,2.3596,2.3562,2.355,2.3519,2.3494,2.3448,2.3419,2.3388,2.338,2.3376,2.3375,2.3383,2.338,2.3381,2.3379,2.3377,2.3377,2.3377,2.3377,0,2.3753,2.3743,2.3721,2.3695,2.3676,2.3653,2.363,2.3619,2.3588,2.357,2.3541,2.3522,2.3482,2.3452,2.3418,2.3397,2.3381,2.3378,2.3374,2.3381,2.3393,2.3386,2.3394,2.3378,2.3378,2.3378,2.3378,2.3378,2.3754,2.374,2.3714,2.369,2.367,2.3649,2.3632,2.3611,2.3587,2.3555,2.354,2.3511,2.348,2.3433,2.3413,2.3388,2.3384,2.3379,2.3378,2.3377,2.3379,2.3397,2.3382,2.3382,2.3382,2.3382,2.3382,0,2.3749,2.3731,2.3709,2.3678,2.3659,2.3648,2.3621,2.3605,2.3581,2.3555,2.3531,2.3497,2.3468,2.3437,2.3405,2.3391,2.3383,2.3384,2.3384,2.338,2.3384,2.339,2.3391,2.3391,2.3391,2.3391,2.3391,2.3391,2.3744,2.3721,2.3707,2.3673,2.3654,2.3628,2.3613,2.3593,2.3572,2.3536,2.3513,2.3494,2.3465,2.3431,2.3403,2.3395,2.3384,2.3386,2.3376,2.338,2.338,2.3379,2.3385,2.3384,2.3384,2.3373,2.3373,2.3373]}]]